Regional Weather Roundup
Issued by NWS State College, PA

Home | Current Version | Previous Version | Graphics & Text | Print | Product List | Glossary On
Versions: 1 2 3 4 5 6 7 8 9 10 11 12 13 14 15 16 17 18 19 20 21 22 23 24 25 26 27 28 29 30 31 32 33 34 35 36 37 38 39 40 41 42 43 44 45 46 47 48 49 50
000
ASUS41 KCTP 280610
RWRCTP

REGIONAL WEATHER ROUNDUP
NATIONAL WEATHER SERVICE STATE COLLEGE PA
200 AM EDT WED JUN 28 2017

Note: "fair" indicates few or no clouds below 12,000 feet with no
significant weather and/or obstructions to visibility.

* = STATION THAT DOES NOT REPORT PRECIPITATION /E.G. RAIN...SNOW...ETC/
    THUNDER OR FOG.

PAZ002>004-007>009-013>016-020>023-029>032-280700-
WESTERN PENNSYLVANIA

CITY           SKY/WX    TMP DP  RH WIND       PRES   REMARKS
ERIE           CLOUDY    58  45  62 S6        30.08S
MEADVILLE      CLEAR     54  45  71 S6        30.11S
FRANKLIN*      CLEAR     46  43  87 SW6       30.12S
NEW CASTLE     FAIR      47  47 100 CALM      30.12F
BEAVER COUNTY  NOT AVBL
BUTLER*        CLEAR     48  46  93 CALM      30.12F
PITTSBURGH INT CLEAR     54  48  80 CALM      30.12F
PITTSBURGH     CLEAR     58  44  60 CALM      30.12F
INDIANA*       CLEAR     50  48  93 CALM      30.16R
LATROBE        CLEAR     50  50 100 CALM      30.14S
WASHINGTON CO* CLEAR     46  45  93 CALM      30.16R
$$

PAZ004>006-010>012-017>019-024>028-033>037-041-042-045-046-049>053-280700-
CENTRAL PENNSYLVANIA

CITY           SKY/WX    TMP DP  RH WIND       PRES   REMARKS
BRADFORD       CLEAR     42  42 100 CALM      30.11S
DUBOIS         CLEAR     48  45  89 SW3       30.11F
CLEARFIELD     CLEAR     49  48  97 CALM      30.13S
JOHNSTOWN      CLEAR     51  47  86 SW6       30.14S
ALTOONA        CLEAR     52  48  86 CALM      30.13S
STATE COLLEGE  CLEAR     52  47  83 CALM      30.11F
WILLIAMSPORT   CLEAR     54  52  93 NW3       30.08R
SELINSGROVE    CLEAR     53  51  93 CALM      30.10R
FT INDIANTOWN  CLEAR     61  48  61 W6        30.09R
CAPITAL CITY   CLEAR     58  48  69 W9        30.09S
HARRISBURG     CLEAR     60  51  72 CALM      30.09R
YORK           CLEAR     52  51  97 W3        30.10S
$$

PAZ038>040-043-044-047-048-054-055-060>062-067>071-280700-
EASTERN PENNSYLVANIA

CITY           SKY/WX    TMP DP  RH WIND       PRES   REMARKS
SCRANTON       CLEAR     57  50  77 SW6       30.07R
MOUNT POCONO   CLEAR     49  48  97 W5        30.07R
ALLENTOWN      CLEAR     55  48  77 SW7       30.06S
QUAKERTOWN*    CLEAR     57  48  72 CALM      30.08S
READING        CLEAR     61  51  70 W3        30.07S
LANCASTER      CLEAR     59  50  72 W6        30.09R
COATESVILLE    CLEAR     55  50  82 W6        30.10S
POTTSTOWN      CLEAR     58  48  69 CALM      30.10R
BLUE BELL      CLEAR     55  50  82 CALM      30.08S
DOYLESTOWN     CLEAR     60  49  66 W6        30.06S
WILLOW GROVE   NOT AVBL
NORTH PHILA    PTCLDY    64  49  57 NW7       30.08S
PHILADELPHIA   CLEAR     66  48  52 NW8       30.08R
$$




USA.gov is the U.S. government's official web portal to all federal, state and local government web resources and services.